EDT,Max TemperatureF,Mean TemperatureF,Min TemperatureF,Max Dew PointF,MeanDew PointF,Min DewpointF,Max Humidity, Mean Humidity, Min Humidity, Max Sea Level PressureIn, Mean Sea Level PressureIn, Min Sea Level PressureIn, Max VisibilityMiles, Mean VisibilityMiles, Min VisibilityMiles, Max Wind SpeedMPH, Mean Wind SpeedMPH, Max Gust SpeedMPH,PrecipitationIn, CloudCover, Events, WindDirDegrees
2012-10-1,63,61,59,61,59,55,100,92,86,29.94,29.89,29.86,10,7,2,7,3,,0.06,7,Rain,64
2012-10-2,87,74,63,74,69,62,100,90,61,29.95,29.85,29.81,10,5,0,12,3,17,0.03,6,Fog-Rain,142
2012-10-3,82,76,69,72,69,65,100,87,56,30.17,30.05,29.97,10,7,0,6,2,,0.00,3,Fog-Rain,216
2012-10-4,78,70,61,64,62,59,97,78,54,30.23,30.18,30.15,10,10,6,8,5,30,0.00,1,Rain,243
2012-10-5,80,66,53,60,56,53,100,76,42,30.19,30.12,30.02,10,9,2,6,1,,0.01,0,,248
2012-10-6,82,70,57,62,57,52,97,73,45,30.00,29.95,29.88,10,9,4,10,3,,0.02,3,,285
2012-10-7,57,52,48,54,49,45,94,90,80,30.15,30.06,29.99,10,8,2,17,7,29,0.60,8,Rain-Thunderstorm,14
2012-10-8,50,48,46,48,45,41,96,88,74,30.23,30.18,30.15,10,8,2,13,7,18,0.03,8,Rain,14
2012-10-9,57,52,46,54,48,44,94,89,77,30.18,30.13,30.08,10,8,3,8,5,,0.01,8,,359
2012-10-10,72,60,48,53,50,47,100,81,49,30.13,30.05,29.98,10,9,0,10,3,17,0.00,3,Fog,243
2012-10-11,66,56,46,47,41,38,93,65,40,30.31,30.23,30.14,10,10,10,7,5,,0.00,0,,322
2012-10-12,72,58,43,50,45,41,93,74,36,30.35,30.22,30.18,10,10,9,10,2,16,0.00,0,,310
2012-10-13,64,53,42,47,42,37,93,67,45,30.48,30.40,30.35,10,10,10,9,5,,0.00,0,,58
2012-10-14,73,57,41,59,52,40,97,78,57,30.32,30.19,30.02,10,10,8,9,2,,0.00,2,,189
2012-10-15,73,64,55,64,59,44,94,82,53,30.01,29.85,29.71,10,8,0,10,5,,0.34,5,Fog-Rain,216
2012-10-16,68,56,44,48,43,40,96,67,42,29.97,29.92,29.87,10,10,10,8,4,,0.00,0,,299
2012-10-17,71,56,43,50,46,42,97,74,39,30.00,29.95,29.92,10,10,10,9,1,,0.00,0,,166
2012-10-18,73,59,45,63,55,44,97,85,66,29.93,29.85,29.77,10,9,4,12,2,,0.01,3,,165
2012-10-19,73,60,46,63,57,35,100,84,29,29.78,29.75,29.68,10,6,0,15,2,24,0.19,4,Fog-Rain,209
2012-10-20,69,56,42,48,42,40,93,66,39,29.97,29.83,29.75,10,10,10,10,3,17,0.00,0,,291
2012-10-21,66,52,41,45,41,38,93,64,40,30.16,30.10,29.98,10,10,10,10,3,,0.00,0,,315
2012-10-22,75,56,39,50,44,38,100,71,33,30.25,30.18,30.14,10,10,3,6,1,,0.00,0,,295
2012-10-23,79,62,45,53,49,43,97,69,34,30.19,30.14,30.09,10,10,9,8,2,,0.00,0,,222
2012-10-24,80,62,46,53,50,45,97,74,39,30.19,30.15,30.09,10,10,7,8,1,,0.00,0,,235
2012-10-25,,,,,,,,,,,,,,,,,,,,,,
2012-10-26,,,,,,,,,,,,,,,,,,,,,,
2012-10-27,,,,,,,,,,,,,,,,,,,,,,
2012-10-28,,,,,,,,,,,,,,,,,,,,,,
2012-10-29,,,,,,,,,,,,,,,,,,,,,,
2012-10-30,,,,,,,,,,,,,,,,,,,,,,
2012-10-31,54,50,45,35,34,33,63,53,45,29.77,29.71,29.67,10,10,10,16,11,23,0.00,7,,258